User: anonymous   Login
Location: Mentone
(34.5413°N, 85.5351°W)
Time: 22:29:29
(UTC-05:00)
Language:

Transit 2A Rocket - Orbit

View from above orbital plane
View from above orbital plane
View from above satellite
View from above satellite

Ground track
Ground track

The orbit data is extracted from the following two-line orbital elements,

1    47U 60007C   18170.42197179 -.00000038 +00000-0 +16542-4 0  9995
2    47 066.6664 304.1690 0221062 117.5507 244.8247 14.41987439029562
Epoch (UTC): 19 June 2018 10:07:38
Eccentricity: 0.0221062
inclination: 66.6664°
perigee height: 594 km
apogee height: 909 km
right ascension of ascending node: 304.1690°
argument of perigee: 117.5507°
revolutions per day: 14.41987439
mean anomaly at epoch: 244.8247°
orbit number at epoch: 2956

The dashed part of the orbit path shows where the satellite is in the earth's shadow,  

DLR